Weather History for KCOQ - June, 2013

Change the Weather History Date:

Friday, June 7, 2013

  Actual Average Record
Temperature  
Mean Temperature 53 °F -  
Max Temperature 64 °F 64 °F 87 °F (2004)
Min Temperature 42 °F 44 °F 42 °F (2013)
Degree Days  
Heating Degree Days 12    
Growing Degree Days 3 (Base 50)    
Moisture  
Dew Point 37 °F    
Average Humidity 58    
Maximum Humidity 87    
Minimum Humidity 26    
Precipitation  
Precipitation 0.00 in - - ()
Sea Level Pressure  
Sea Level Pressure 30.01 in    
Wind  
Wind Speed 0 mph (SE)    
Max Wind Speed 6 mph    
Max Gust Speed -    
Visibility 10 miles    
Events      
Averages and records for this station are not official NWS values.
T = Trace of Precipitation, MM = Missing Value Source: NWS Daily Summary

Daily Weather History Graph

Daily Weather History Graph

Search for Another Location

Airport or City:

Trip Planner

Search our weather history database for the weather conditions in past years. The results will help you decide how hot, cold, wet, or windy it might be!

Date:

Astronomy

Jun. 07, 2013 Rise Set
Actual Time 5:17 AM CDT 9:01 PM CDT
Civil Twilight 4:38 AM CDT 9:40 PM CDT
Nautical Twilight 3:45 AM CDT 10:32 PM CDT
Astronomical Twilight 2:32 AM CDT 11:46 PM CDT
Moon 4:44 AM CDT (6/7) 8:11 PM CDT (6/7)
Length of Visible Light 17h 01m
Length of Day
15h 44m
Waning Crescent, 1% of the Moon is Illuminated
Jun 7
Waning Crescent
Jun 8
New
Jun 16
First Quarter
Jun 23
Full
Jun 29
Last Quarter

Hourly Weather History & Observations

Time (CDT) Temp. Dew Point Humidity Pressure Visibility Wind Dir Wind Speed Gust Speed Precip Events Conditions
12:16 AM 46.4 °F 42.8 °F 87% 30.06 in 10.0 mi Calm Calm - N/A   Overcast
12:36 AM 46.4 °F 41.0 °F 81% 30.05 in 10.0 mi Calm Calm - N/A   Overcast
12:56 AM 46.4 °F 41.0 °F 81% 30.05 in 10.0 mi Calm Calm - N/A   Overcast
1:16 AM 46.4 °F 39.2 °F 76% 30.05 in 10.0 mi Calm Calm - N/A   Mostly Cloudy
1:36 AM 42.8 °F 39.2 °F 87% 30.05 in 10.0 mi Calm Calm - N/A   Mostly Cloudy
1:56 AM 44.6 °F 39.2 °F 81% 30.04 in 10.0 mi Calm Calm - N/A   Overcast
2:16 AM 46.4 °F 39.2 °F 76% 30.04 in 10.0 mi Calm Calm - N/A   Overcast
2:36 AM 46.4 °F 41.0 °F 81% 30.04 in 10.0 mi Calm Calm - N/A   Overcast
2:55 AM 46.4 °F 41.0 °F 81% 30.04 in 10.0 mi Calm Calm - N/A   Overcast
3:16 AM 46.4 °F 41.0 °F 81% 30.04 in 10.0 mi Calm Calm - N/A   Overcast
3:36 AM 46.4 °F 39.2 °F 76% 30.04 in 10.0 mi Calm Calm - N/A   Overcast
3:55 AM 46.4 °F 39.2 °F 76% 30.03 in 10.0 mi Calm Calm - N/A   Overcast
4:16 AM 46.4 °F 39.2 °F 76% 30.03 in 10.0 mi Calm Calm - N/A   Overcast
4:36 AM 46.4 °F 41.0 °F 81% 30.03 in 10.0 mi Calm Calm - N/A   Overcast
4:56 AM 46.4 °F 41.0 °F 81% 30.03 in 10.0 mi Calm Calm - N/A   Overcast
5:16 AM 46.4 °F 41.0 °F 81% 30.03 in 10.0 mi Calm Calm - N/A   Overcast
5:36 AM 46.4 °F 41.0 °F 81% 30.03 in 10.0 mi Calm Calm - N/A   Overcast
5:56 AM 46.4 °F 41.0 °F 81% 30.04 in 10.0 mi Calm Calm - N/A   Overcast
6:15 AM 46.4 °F 42.8 °F 87% 30.04 in 10.0 mi Calm Calm - N/A   Overcast
6:36 AM 46.4 °F 42.8 °F 87% 30.05 in 10.0 mi Calm Calm - N/A   Overcast
6:56 AM 46.4 °F 42.8 °F 87% 30.05 in 10.0 mi Calm Calm - N/A   Overcast
7:15 AM 48.2 °F 42.8 °F 82% 30.06 in 10.0 mi Calm Calm - N/A   Overcast
7:36 AM 48.2 °F 42.8 °F 82% 30.06 in 10.0 mi Calm Calm - N/A   Overcast
7:56 AM 50.0 °F 42.8 °F 76% 30.06 in 10.0 mi Calm Calm - N/A   Overcast
8:16 AM 50.0 °F 39.2 °F 66% 30.06 in 10.0 mi Calm Calm - N/A   Overcast
8:36 AM 51.8 °F 37.4 °F 58% 30.07 in 10.0 mi Calm Calm - N/A   Overcast
8:56 AM 51.8 °F 39.2 °F 62% 30.07 in 10.0 mi Calm Calm - N/A   Overcast
9:16 AM 51.8 °F 39.2 °F 62% 30.07 in 10.0 mi Calm Calm - N/A   Overcast
9:36 AM 51.8 °F 37.4 °F 58% 30.06 in 10.0 mi Calm Calm - N/A   Overcast
9:56 AM 51.8 °F 37.4 °F 58% 30.06 in 10.0 mi Calm Calm - N/A   Overcast
10:16 AM 53.6 °F 37.4 °F 54% 30.06 in 10.0 mi Calm Calm - N/A   Overcast
10:36 AM 53.6 °F 37.4 °F 54% 30.06 in 10.0 mi Calm Calm - N/A   Overcast
10:55 AM 53.6 °F 37.4 °F 54% 30.05 in 10.0 mi Calm Calm - N/A   Overcast
11:16 AM 53.6 °F 37.4 °F 54% 30.05 in 10.0 mi Calm Calm - N/A   Overcast
11:36 AM 55.4 °F 37.4 °F 51% 30.05 in 10.0 mi Calm Calm - N/A   Overcast
11:55 AM 55.4 °F 37.4 °F 51% 30.05 in 10.0 mi Calm Calm - N/A   Overcast
12:16 PM 55.4 °F 37.4 °F 51% 30.05 in 10.0 mi Calm Calm - N/A   Overcast
12:36 PM 55.4 °F 35.6 °F 47% 30.04 in 10.0 mi Calm Calm - N/A   Overcast
12:55 PM 57.2 °F 37.4 °F 48% 30.04 in 10.0 mi Calm Calm - N/A   Overcast
1:16 PM 59.0 °F 37.4 °F 45% 30.02 in 10.0 mi Calm Calm - N/A   Overcast
1:36 PM 60.8 °F 35.6 °F 39% 30.01 in 10.0 mi ESE 4.6 mph - N/A   Overcast
1:56 PM 60.8 °F 35.6 °F 39% 30.00 in 10.0 mi ESE 3.5 mph - N/A   Mostly Cloudy
2:16 PM 60.8 °F 33.8 °F 36% 30.00 in 10.0 mi ESE 5.8 mph - N/A   Scattered Clouds
2:36 PM 62.6 °F 30.2 °F 30% 29.99 in 10.0 mi SSE 3.5 mph - N/A   Scattered Clouds
2:55 PM 62.6 °F 28.4 °F 27% 29.99 in 10.0 mi Calm Calm - N/A   Mostly Cloudy
3:16 PM 62.6 °F 30.2 °F 30% 29.98 in 10.0 mi Calm Calm - N/A   Overcast
3:35 PM 64.4 °F 30.2 °F 28% 29.98 in 10.0 mi SSE 3.5 mph - N/A   Overcast
3:56 PM 64.4 °F 28.4 °F 26% 29.98 in 10.0 mi Calm Calm - N/A   Overcast
4:16 PM 64.4 °F 32.0 °F 30% 29.98 in 10.0 mi West 3.5 mph - N/A   Overcast
4:35 PM 64.4 °F 28.4 °F 26% 29.97 in 10.0 mi Calm Calm - N/A   Overcast
4:56 PM 64.4 °F 28.4 °F 26% 29.97 in 10.0 mi Calm Calm - N/A   Overcast
5:16 PM 64.4 °F 30.2 °F 28% 29.96 in 10.0 mi Calm Calm - N/A   Overcast
5:35 PM 62.6 °F 32.0 °F 32% 29.96 in 10.0 mi Calm Calm - N/A   Overcast
5:56 PM 62.6 °F 37.4 °F 39% 29.96 in 10.0 mi SW 3.5 mph - N/A   Overcast
6:16 PM 62.6 °F 37.4 °F 39% 29.96 in 10.0 mi Calm Calm - N/A   Overcast
6:35 PM 60.8 °F 35.6 °F 39% 29.96 in 10.0 mi ESE 3.5 mph - N/A   Overcast
6:56 PM 57.2 °F 35.6 °F 44% 29.96 in 10.0 mi ESE 3.5 mph - N/A   Overcast
7:16 PM 57.2 °F 35.6 °F 44% 29.96 in 10.0 mi SE 3.5 mph - N/A   Overcast
7:36 PM 57.2 °F 35.6 °F 44% 29.96 in 10.0 mi Calm Calm - N/A   Overcast
7:55 PM 57.2 °F 35.6 °F 44% 29.96 in 10.0 mi Calm Calm - N/A   Overcast
8:16 PM 55.4 °F 37.4 °F 51% 29.96 in 10.0 mi Calm Calm - N/A   Overcast
8:36 PM 55.4 °F 37.4 °F 51% 29.96 in 10.0 mi Calm Calm - N/A   Overcast
8:55 PM 55.4 °F 37.4 °F 51% 29.96 in 10.0 mi Calm Calm - N/A   Overcast
9:16 PM 53.6 °F 37.4 °F 54% 29.96 in 10.0 mi Calm Calm - N/A   Overcast
9:36 PM 53.6 °F 35.6 °F 51% 29.96 in 10.0 mi Calm Calm - N/A   Overcast
9:55 PM 53.6 °F 41.0 °F 62% 29.96 in 10.0 mi Calm Calm - N/A   Overcast
10:16 PM 53.6 °F 35.6 °F 51% 29.96 in 10.0 mi Calm Calm - N/A   Overcast
10:36 PM 53.6 °F 30.2 °F 41% 29.96 in 10.0 mi Calm Calm - N/A   Overcast
10:56 PM 51.8 °F 33.8 °F 50% 29.96 in 10.0 mi Calm Calm - N/A   Overcast
11:16 PM 51.8 °F 33.8 °F 50% 29.96 in 10.0 mi Calm Calm - N/A   Mostly Cloudy
11:36 PM 48.2 °F 37.4 °F 66% 29.96 in 10.0 mi Calm Calm - N/A   Scattered Clouds
11:56 PM 46.4 °F 35.6 °F 66% 29.95 in 10.0 mi Calm Calm - N/A   Scattered Clouds